Back to catalog

STARLINK-30457

AliveCommunicationsVLEO
NORAD 57900·PAYLOAD·🇺🇸 United States

Launched Sep 20, 2023 from Cape Canaveral Space Force Station

Loading…

Next Passes (next 24 hours)

TLE

FreshSource: CelesTrak SupGP

Epoch: Sep 14, 2026, 21:51 UTC

1 57900C 23146K   26257.91090278 -.00083244  00000+0 -30147-2 0  2571
2 57900  43.0035 325.9212 0001888 265.0722   6.2881 15.27622764    19

Track STARLINK-30457 in real time with AllMySat

Download on the App Store